Danbury, CT

5:06 PM EST on December 04, 2016 (GMT -0500)
Danbury Municipal

Weather History for KDXR - July, 2013

Change the Weather History Date:

Thursday, July 18, 2013

  Actual Average Record
Temperature  
Mean Temperature 82 °F -  
Max Temperature 93 °F 87 °F 102 °F (1991)
Min Temperature 73 °F 63 °F 49 °F (1956)
Cooling Degree Days 17    
Growing Degree Days 32 (Base 50)    
Moisture  
Dew Point 71 °F    
Average Humidity 71    
Maximum Humidity 93    
Minimum Humidity 47    
Precipitation  
Precipitation 0.23 in - - ()
Sea Level Pressure  
Sea Level Pressure 30.03 in    
Wind  
Wind Speed 2 mph (West)    
Max Wind Speed 7 mph    
Max Gust Speed 18 mph    
Visibility 8 miles    
Events Rain , Thunderstorm    
Averages and records for this station are not official NWS values.
T = Trace of Precipitation, MM = Missing Value Source: NWS Daily Summary

Daily Weather History Graph

Daily Weather History Graph

Search for Another Location

Airport or City:

Trip Planner

Search our weather history database for the weather conditions in past years. The results will help you decide how hot, cold, wet, or windy it might be!

Date:

Astronomy

Jul. 18, 2013 Rise Set
Actual Time 5:36 AM EDT 8:23 PM EDT
Civil Twilight 5:03 AM EDT 8:56 PM EDT
Nautical Twilight 4:22 AM EDT 9:36 PM EDT
Astronomical Twilight 3:35 AM EDT 10:23 PM EDT
Moon 4:17 PM EDT (7/18) 1:25 AM EDT (7/18)
Length of Visible Light 15h 52m
Length of Day
14h 47m
Waxing Gibbous, 77% of the Moon is Illuminated
Jul 18
Waxing Gibbous
Jul 22
Full
Jul 29
Last Quarter
Aug 6
New
Aug 14
First Quarter

Hourly Weather History & Observations

Time (EDT) Temp. Heat Index Dew Point Humidity Pressure Visibility Wind Dir Wind Speed Gust Speed Precip Events Conditions
12:53 AM 75.9 °F - 66.9 °F 74% 30.08 in 9.0 mi Calm Calm - N/A   Partly Cloudy
1:53 AM 75.0 °F - 68.0 °F 79% 30.06 in 9.0 mi Calm Calm - N/A Thunderstorm Clear
2:21 AM 75.2 °F - 69.8 °F 83% 30.10 in 1.8 mi Variable 6.9 mph 18.4 mph 0.15 in Rain , Thunderstorm Heavy Thunderstorms and Rain
2:33 AM 75.2 °F - 69.8 °F 83% 30.08 in 3.0 mi Calm Calm - 0.23 in Rain , Thunderstorm Light Thunderstorms and Rain
2:53 AM 75.0 °F - 71.1 °F 87% 30.05 in 8.0 mi Calm Calm - 0.23 in   Mostly Cloudy
3:53 AM 73.0 °F - 71.1 °F 93% 30.04 in 4.0 mi WSW 3.5 mph - N/A   Clear
4:53 AM 73.0 °F - 71.1 °F 93% 30.04 in 4.0 mi Calm Calm - N/A   Clear
5:53 AM 73.0 °F - 70.0 °F 90% 30.04 in 3.0 mi Calm Calm - N/A   Clear
6:53 AM 73.9 °F - 71.1 °F 91% 30.06 in 4.0 mi Calm Calm - N/A   Clear
7:53 AM 80.1 °F 83.8 °F 72.0 °F 76% 30.06 in 6.0 mi Calm Calm - N/A   Haze
8:53 AM 82.9 °F 88.8 °F 73.0 °F 72% 30.07 in 7.0 mi Variable 3.5 mph - N/A   Clear
9:53 AM 86.0 °F 93.0 °F 73.0 °F 65% 30.06 in 8.0 mi NW 3.5 mph - N/A   Clear
10:53 AM 88.0 °F 93.8 °F 71.1 °F 57% 30.06 in 10.0 mi NW 6.9 mph - N/A   Clear
11:53 AM 89.1 °F 95.0 °F 71.1 °F 55% 30.05 in 10.0 mi NW 4.6 mph - N/A   Partly Cloudy
12:53 PM 90.0 °F 94.5 °F 69.1 °F 50% 30.04 in 10.0 mi Variable 4.6 mph - N/A   Clear
1:53 PM 91.0 °F 96.6 °F 70.0 °F 50% 30.03 in 10.0 mi NNW 5.8 mph - N/A   Scattered Clouds
2:53 PM 91.9 °F 96.9 °F 69.1 °F 47% 30.01 in 10.0 mi Calm Calm - N/A   Partly Cloudy
3:53 PM 91.9 °F 98.4 °F 71.1 °F 50% 30.00 in 10.0 mi Variable 3.5 mph - N/A   Mostly Cloudy
4:53 PM 91.9 °F 97.4 °F 70.0 °F 48% 29.99 in 10.0 mi WSW 6.9 mph - N/A   Clear
5:53 PM 91.9 °F 96.9 °F 69.1 °F 47% 29.97 in 10.0 mi SW 4.6 mph - N/A   Clear
6:53 PM 89.1 °F 98.0 °F 73.9 °F 61% 29.99 in 10.0 mi South 3.5 mph - N/A   Clear
7:53 PM 84.0 °F 91.9 °F 75.0 °F 74% 29.99 in 9.0 mi SW 3.5 mph - N/A   Clear
8:53 PM 82.0 °F 87.9 °F 73.9 °F 76% 29.99 in 10.0 mi WSW 3.5 mph - N/A   Clear
9:53 PM 82.0 °F 86.7 °F 72.0 °F 71% 30.00 in 10.0 mi Calm Calm - N/A   Clear
10:53 PM 79.0 °F - 72.0 °F 79% 29.99 in 9.0 mi Calm Calm - N/A   Clear
11:53 PM 75.9 °F - 72.0 °F 87% 29.98 in 8.0 mi Calm Calm - N/A   Clear